{"data":{"norad_id":50172,"epoch":"2026-09-19T23:35:31.649280Z","epoch_age_seconds":89381,"freshness":"FRESH","line1":"1 50172U 21125S   26262.98300520  .00000004  00000+0  11250-4 0  9997","line2":"2 50172  53.1607  85.7900 0001273  83.9092 276.2056 15.34391631266112","mean_motion":15.34391631,"eccentricity":0.0001273,"inclination_deg":53.1607,"raan_deg":85.79,"arg_perigee_deg":83.9092,"mean_anomaly_deg":276.2056,"bstar":1.125e-5,"rev_number":26611,"period_min":93.848269953188,"perigee_km":461.85727262274,"apogee_km":463.59895688096,"semimajor_km":6840.8651147519,"source":"CELESTRAK","updated_at":"2026-09-20T09:00:39.415056Z"}}